Showing default

SKYSAT C1, 41601

Orbit data source: Space-Track

SKYSAT C1, 41601 is a payload satellite owned by Terra Bella (US) in SSO that was launched on Wed, 22 Jun 2016 UTC via a PSLV-XL launch vehicle from the Sirharikota (SRI). Payload-class satellites include a variety of spacecraft equipped with specific instruments for various scientific and technological missions. These include communications satellites like Starlink; space stations such as the ISS; scientific satellites like the Hubble; Earth observation satellites from companies like Planet Labs, Umbra, and HawkEye 360; GPS; miniature CubeSats for education and research; and military/defense satellites.

Loading next visibility...
Identifier
41601, 2016-040C
Orbit
SSO
Country
Flag of USUS
Related business
Manufacturer
SS/Loral (MDA)
Mission
Operational Commercial Imaging
Bus & Motor
SKYSAT-GEN2, Unknown motor
Mass
110 kg wet, 110 kg dry
Launch date (UTC)
2016-06-22 (10 years ago)
Launch vehicle
PSLV-XL
Launch site
Sirharikota (SRI)
Object type
Payload
Rocket body
Debris
Shape & HBR
Box, 1.0 m
Radar Cross Section
0.888 m², Medium (>0.1 m² and < 1m²)

Expand to show TLE details & history
Last TLE update: 14 hours ago

TLE from 14 hours ago
0 SKYSAT C1
1 41601U 16040C   26071.04838089  .00010093  00000-0  30343-3 0  9998
2 41601  96.9703 108.0862 0003399  47.4290 312.7240 15.34566965542968
Epoch: 2026-03-12T01:09Z
TLE epoch observation values (Epoch: 2026-03-12T01:09:40.108Z)
Latitude
-0.00011°
Longitude
-79.03476°
Altitude
463.752 km
Speed
7.635 km/s
True Right ascension
07h 12m 20s
True Declination
0° 00' 00"
Sunlit
Object was in full shadow at epoch
Visualization orbit readout
Latitude
Unknown
Longitude
Unknown
Altitude
Unknown
Speed
Unknown
Apparent Right ascension
Unknown
Apparent Declination
Unknown
Sunlit
N/A
Visualization observer readout
Local Sidereal Time
19:51:46
Azimuth
Unknown
Elevation
Unknown
Doppler factor
Unknown
Orbital elements
Apogee altitude
461.459 km
Perigee altitude
456.811 km
Semi-major axis
6,837.272 km
Eccentricity
0.00034
Inclination
96.9703°
RAAN
108.0862°
Arg. of periapsis
47.429°
True anomaly
312.69538°
Mean anomaly
312.724°
Eccentric anomaly
312.70969°
Mean motion
3.83901 °/min
Orbital period
93.77 mins
BSTAR
0.00030343
Loading maneuver chart data...
Computing Atmospheric mass density...

Documentation

Showing up to 5 results
|